[[{"header":{"parameterUnit":"m.s-1","parameterCategory":1,"la1":30.2991,"la2":30.254,"lo1":-89.0895,"lo2":-89.0444,"dy":0.0017,"dx":0.0017,"nx":28,"ny":28,"refTime":"2023-10-29T21:00:00:Z","depth":0,"parameterNumber":2,"parameterNumberName":"U-component_of_WINDS"},"data":[0,0,0,0,0,0,0,0,0,0,0,0,0,0,0,0,0,0,0,0,0,0,0,0,0,0,0,0,0,0,0,0,0,0,0,0,0,0,0,0,0,0,0,0,0,0,0,0,0,0,0,0,0,0,0,0,0,0,-1.7195,-1.7196,0,-1.7227,-1.7227,-1.7227,-1.7178,-1.7176,-1.7175,-1.7173,-1.7207,-1.7209,-1.7211,0,0,0,0,0,0,0,0,0,0,0,0,0,-1.7095,-1.7097,-1.7195,-1.7196,-1.7196,-1.7227,-1.7227,-1.7228,-1.7178,-1.7176,-1.7174,-1.7172,-1.7206,-1.7209,-1.7212,0,0,0,0,0,0,0,0,0,0,0,0,0,-1.7134,-1.7097,-1.7195,-1.7175,-1.7174,-1.7227,-1.7227,-1.7228,-1.7179,-1.7176,-1.7174,-1.7171,-1.7205,-1.7208,-1.7212,-1.7287,0,0,-1.7224,-1.7225,0,0,0,0,0,0,0,0,-1.7131,-1.7137,-1.7178,-1.7177,-1.7175,-1.7196,-1.7204,-1.7247,-1.7179,-1.7177,-1.7173,-1.717,-1.7205,-1.7209,-1.722,-1.7288,-1.729,-1.7224,-1.7226,-1.7228,-1.7229,0,0,0,0,0,0,0,-1.7129,-1.7136,-1.7208,-1.7178,-1.7177,-1.7165,-1.7168,-1.7212,-1.7205,-1.7177,-1.7173,-1.7178,-1.7204,-1.7217,-1.7221,-1.729,-1.7224,-1.7227,-1.7229,-1.7231,-1.7421,-1.7424,0,0,0,0,0,0,-1.7128,-1.7134,-1.7207,-1.7209,-1.7146,-1.7169,-1.7172,-1.7192,-1.7204,-1.7204,-1.718,-1.7175,-1.7212,-1.7216,-1.7222,-1.731,-1.7228,-1.7231,-1.7233,-1.7419,-1.7422,-1.7425,0,0,0,0,0,0,-1.7126,-1.7135,-1.7205,-1.717,-1.7178,-1.7174,-1.7196,-1.7194,-1.7206,-1.7207,-1.7205,-1.7194,-1.721,-1.7216,-1.7271,-1.731,-1.7233,-1.7236,-1.7415,-1.742,-1.7424,-1.7487,0,0,0,0,0,0,-1.7124,-1.7135,-1.7162,-1.7171,-1.718,-1.7254,-1.7198,-1.7196,-1.7213,-1.7207,-1.722,-1.7219,-1.7208,-1.7266,-1.7275,-1.7314,-1.7239,-1.7412,-1.7417,-1.7422,-1.7481,-1.7492,-1.7502,0,0,0,0,0,-1.712,-1.7179,-1.7164,-1.7173,-1.7215,-1.7256,-1.7261,-1.7247,-1.7216,-1.7244,-1.7245,-1.7219,-1.7305,-1.7272,-1.7281,-1.7322,-1.7409,-1.7416,-1.7422,-1.7476,-1.749,-1.7502,0,0,0,0,0,0,-1.7175,-1.718,-1.7163,-1.7227,-1.7241,-1.7247,-1.7282,-1.7262,-1.7286,-1.728,-1.7262,-1.7265,-1.7323,-1.7328,-1.7291,-1.7396,-1.7352,-1.7361,-1.739,-1.7403,-1.7414,-1.7411,-1.7242,0,0,0,0,0,-1.7195,-1.7227,-1.723,-1.7286,-1.7294,-1.7287,-1.7304,-1.7292,-1.7307,-1.7313,-1.7317,-1.7333,-1.7363,-1.7384,-1.7412,-1.7482,-1.7484,-1.7515,-1.7526,-1.7535,-1.7542,-1.758,-1.7594,-1.7446,-1.7446,-1.7446,0,0,-1.7235,-1.7242,-1.7264,-1.7297,-1.7307,-1.7341,-1.7292,-1.7331,-1.7357,-1.7319,-1.737,-1.7374,-1.7391,-1.7453,-1.7481,-1.7459,-1.7584,-1.7543,-1.755,-1.7552,-1.7588,-1.7602,-1.7614,-1.745,-1.7449,-1.7449,0,0,-1.7327,-1.7335,-1.7382,-1.7394,-1.7409,-1.7405,-1.7416,-1.7426,-1.7427,-1.7478,-1.7451,-1.7482,-1.7534,-1.7547,-1.7561,-1.7659,-1.7636,-1.7668,-1.7724,-1.7761,-1.7773,-1.7783,-1.7818,-1.7831,-1.7676,-1.7676,-1.7676,0,-1.7375,-1.7426,-1.741,-1.745,-1.7466,-1.7433,-1.7482,-1.7493,-1.7518,-1.753,-1.7505,-1.7571,-1.758,-1.7645,-1.7669,-1.7681,-1.7694,-1.7666,-1.7772,-1.7782,-1.7792,-1.7825,-1.7838,-1.768,-1.768,-1.7679,-1.7679,0,-1.7485,-1.752,-1.7557,-1.7581,-1.7601,-1.7645,-1.7637,-1.7659,-1.7646,-1.7644,-1.7697,-1.7707,-1.7736,-1.7751,-1.7739,-1.7815,-1.7801,-1.7775,-1.773,-1.781,-1.7841,-1.7853,-1.7685,-1.7684,-1.7683,-1.7682,0,0,-1.761,-1.7626,-1.7639,-1.765,-1.7665,-1.7693,-1.7737,-1.7765,-1.7785,-1.7803,-1.7839,-1.7886,-1.7861,-1.7877,-1.7866,-1.7898,-1.7976,-1.7868,-1.7868,-1.7887,-1.8061,-1.808,-1.8095,-1.7961,-1.7963,-1.7965,-1.8059,0,-1.7701,-1.7775,-1.7763,-1.7835,-1.7868,-1.7838,-1.7876,-1.789,-1.7891,-1.7919,-1.7919,-1.7952,-1.7918,-1.7927,-1.7958,-1.796,-1.801,-1.7953,-1.7995,-1.7996,-1.7991,-1.8111,-1.8132,-1.822,-1.8071,-1.8073,-1.8075,0,-1.7816,-1.7839,-1.7914,-1.7925,-1.7939,-1.7973,-1.7999,-1.8026,-1.8042,-1.804,-1.8058,-1.8041,-1.8085,-1.8041,-1.8102,-1.8063,-1.808,-1.8084,-1.8087,-1.809,-1.804,-1.8117,-1.8248,-1.8261,-1.8094,-1.8092,-1.8091,0,-1.79,-1.795,-1.8001,-1.8011,-1.8025,-1.805,-1.8058,-1.8071,-1.8089,-1.8112,-1.8124,-1.8152,-1.8167,-1.819,-1.8181,-1.815,-1.8244,-1.8199,-1.8244,-1.8244,-1.8264,-1.8263,-1.8399,-1.8276,-1.8276,-1.8276,-1.8276,0,-1.8002,-1.805,-1.8039,-1.8071,-1.8123,-1.8109,-1.8161,-1.8165,-1.8178,-1.821,-1.8187,-1.8218,-1.8205,-1.8236,-1.8229,-1.8281,-1.8288,-1.8288,-1.8286,-1.829,-1.829,-1.83,-1.8293,-1.8279,-1.8279,-1.8278,-1.8277,0,-1.8104,-1.8099,-1.8153,-1.8162,-1.8166,-1.8204,-1.8212,-1.8243,-1.8241,-1.8283,-1.8292,-1.829,-1.8325,-1.8319,-1.8358,-1.8354,-1.8418,-1.8408,-1.8412,-1.841,-1.8455,-1.8451,-1.8602,-1.8621,-1.8486,-1.8488,-1.8489,0,-1.8169,-1.8205,-1.8218,-1.8238,-1.8247,-1.828,-1.8298,-1.8286,-1.8307,-1.8328,-1.8356,-1.8389,-1.8414,-1.8472,-1.8474,-1.8504,-1.8495,-1.8546,-1.8499,-1.8502,-1.8495,-1.8493,-1.8497,-1.8555,-1.8556,-1.8558,-1.8559,0,-1.8286,-1.8281,-1.8309,-1.8336,-1.8359,-1.838,-1.8399,-1.8417,-1.8406,-1.8431,-1.8466,-1.8486,-1.8526,-1.8559,-1.8587,-1.8595,-1.8576,-1.8574,-1.8585,-1.8589,-1.859,-1.859,-1.8437,-1.857,-1.8569,-1.8568,-1.8567,-1.8567,-1.8371,-1.8401,-1.8416,-1.8447,-1.846,-1.8479,-1.8507,-1.851,-1.8539,-1.857,-1.8562,-1.8602,-1.8618,-1.8654,-1.8665,-1.8697,-1.8678,-1.8695,-1.8699,-1.8704,-1.8709,-1.8586,-1.8702,-1.8701,-1.8701,-1.8701,-1.8701,0,-1.8485,-1.8493,-1.8523,-1.855,-1.8575,-1.8555,-1.8575,-1.8597,-1.8633,-1.8649,-1.8675,-1.8716,-1.8749,-1.8754,-1.8785,-1.8809,-1.8801,-1.8818,-1.8816,-1.8818,-1.8724,-1.871,-1.8824,-1.8824,-1.8824,-1.8824,-1.8824,-1.8824,-1.8548,-1.8599,-1.8597,-1.8654,-1.8662,-1.87,-1.8714,-1.8731,-1.8744,-1.8791,-1.8817,-1.8821,-1.8833,-1.8865,-1.8894,-1.8895,-1.8907,-1.8927,-1.8925,-1.8837,-1.8824,-1.8813,-1.88,-1.893,-1.893,-1.9016,-1.9016,-1.9017]},{"header":{"parameterUnit":"m.s-1","parameterCategory":1,"la1":30.2991,"la2":30.254,"lo1":-89.0895,"lo2":-89.0444,"dy":0.0017,"dx":0.0017,"nx":28,"ny":28,"refTime":"2023-10-29T21:00:00:Z","depth":0,"parameterNumber":3,"parameterNumberName":"V-component_of_WINDS"},"data":[0,0,0,0,0,0,0,0,0,0,0,0,0,0,0,0,0,0,0,0,0,0,0,0,0,0,0,0,0,0,0,0,0,0,0,0,0,0,0,0,0,0,0,0,0,0,0,0,0,0,0,0,0,0,0,0,0,0,0.723,0.723,0,0.7248,0.7248,0.7248,0.726,0.726,0.726,0.726,0.7278,0.7279,0.7279,0,0,0,0,0,0,0,0,0,0,0,0,0,0.7207,0.7208,0.723,0.723,0.7231,0.7248,0.7248,0.7249,0.726,0.726,0.726,0.726,0.7278,0.7279,0.7279,0,0,0,0,0,0,0,0,0,0,0,0,0,0.722,0.7208,0.723,0.7238,0.7239,0.7248,0.7248,0.7249,0.726,0.726,0.726,0.726,0.7278,0.7279,0.7279,0.7282,0,0,0.7282,0.7282,0,0,0,0,0,0,0,0,0.722,0.7221,0.7237,0.7238,0.7239,0.7252,0.7247,0.726,0.7259,0.7252,0.726,0.726,0.7269,0.7271,0.7274,0.7283,0.7284,0.7282,0.7282,0.7282,0.7282,0,0,0,0,0,0,0,0.7219,0.7221,0.7237,0.7237,0.7238,0.7242,0.7244,0.725,0.726,0.7252,0.7253,0.7255,0.727,0.7273,0.7275,0.7284,0.7282,0.7282,0.7283,0.7283,0.7298,0.7298,0,0,0,0,0,0,0.7216,0.722,0.7237,0.7238,0.7229,0.7242,0.7244,0.7247,0.726,0.7262,0.7255,0.7256,0.7272,0.7274,0.7275,0.728,0.7282,0.7283,0.7283,0.7298,0.7298,0.7298,0,0,0,0,0,0,0.7216,0.7218,0.7236,0.7229,0.7232,0.7242,0.7246,0.7248,0.7251,0.7262,0.7264,0.7257,0.7272,0.7274,0.7281,0.7281,0.7283,0.7284,0.7298,0.7298,0.7298,0.7289,0,0,0,0,0,0,0.7215,0.7218,0.7218,0.7229,0.7232,0.724,0.7246,0.7248,0.7252,0.7253,0.7264,0.7266,0.7273,0.728,0.7281,0.7282,0.7284,0.7298,0.7298,0.7298,0.7289,0.7289,0.7288,0,0,0,0,0,0.7214,0.7214,0.7218,0.722,0.7232,0.724,0.7242,0.725,0.7252,0.7253,0.7261,0.7265,0.7281,0.728,0.7282,0.7283,0.7298,0.7298,0.7298,0.729,0.7289,0.7288,0,0,0,0,0,0,0.7202,0.7216,0.722,0.7223,0.7231,0.7242,0.7243,0.7248,0.7255,0.7256,0.7265,0.7268,0.7274,0.7279,0.7278,0.7287,0.729,0.729,0.7283,0.7283,0.7282,0.728,0.7285,0,0,0,0,0,0.72,0.7205,0.7217,0.7218,0.7222,0.7232,0.7236,0.7241,0.7249,0.7252,0.726,0.7268,0.7275,0.7279,0.7286,0.7291,0.7294,0.7293,0.7292,0.7291,0.7291,0.7296,0.7296,0.7298,0.7298,0.7298,0,0,0.7195,0.7203,0.7206,0.7216,0.7223,0.7228,0.7234,0.7239,0.7244,0.7253,0.726,0.7266,0.7276,0.7282,0.7285,0.7286,0.7292,0.7291,0.7291,0.7291,0.7296,0.7296,0.7296,0.7298,0.7298,0.7298,0,0,0.719,0.7196,0.7199,0.7206,0.7215,0.7223,0.7224,0.7235,0.7239,0.7246,0.7254,0.726,0.7271,0.7278,0.7283,0.7283,0.7289,0.7285,0.7282,0.7287,0.7286,0.7286,0.7287,0.7287,0.7286,0.7286,0.7286,0,0.7182,0.719,0.72,0.7205,0.721,0.722,0.7224,0.723,0.7241,0.7245,0.7247,0.7263,0.727,0.7278,0.7279,0.7282,0.7284,0.7284,0.7286,0.7286,0.7286,0.7287,0.7287,0.7285,0.7285,0.7285,0.7285,0,0.7182,0.7188,0.7189,0.7201,0.7206,0.721,0.7221,0.7226,0.7232,0.7239,0.7247,0.7257,0.7266,0.7269,0.7274,0.7279,0.728,0.7284,0.7287,0.7285,0.7286,0.7287,0.7285,0.7285,0.7285,0.7285,0,0,0.7167,0.7185,0.7186,0.7192,0.7205,0.721,0.7216,0.7226,0.723,0.7238,0.7244,0.7255,0.7259,0.7265,0.7272,0.7276,0.7277,0.7279,0.728,0.7279,0.7284,0.7281,0.7281,0.7281,0.7281,0.7281,0.7283,0,0.7163,0.7173,0.7183,0.719,0.7197,0.7208,0.7213,0.7222,0.723,0.7237,0.7246,0.7253,0.7258,0.7262,0.7266,0.7275,0.7278,0.7275,0.7287,0.7287,0.7283,0.7281,0.7277,0.7279,0.7283,0.7283,0.7284,0,0.7159,0.7168,0.7176,0.7191,0.7194,0.7198,0.7209,0.7215,0.7227,0.7232,0.724,0.7248,0.7256,0.7259,0.7271,0.7269,0.7275,0.7281,0.7281,0.7282,0.7285,0.7282,0.7279,0.728,0.7284,0.7284,0.7284,0,0.7148,0.7162,0.7169,0.7174,0.7191,0.7194,0.7201,0.7213,0.7219,0.7229,0.7233,0.7244,0.725,0.7259,0.727,0.7271,0.7281,0.7285,0.7286,0.7286,0.7287,0.7287,0.7285,0.7291,0.7291,0.7291,0.7291,0,0.7143,0.7147,0.7165,0.7169,0.7175,0.7187,0.7193,0.7202,0.7212,0.7219,0.723,0.7236,0.725,0.7259,0.7268,0.7277,0.7279,0.7285,0.7287,0.7284,0.7283,0.7287,0.7287,0.7291,0.7291,0.7291,0.7291,0,0.7131,0.7143,0.7151,0.7167,0.7171,0.7175,0.7189,0.7195,0.7204,0.7213,0.7215,0.723,0.7241,0.7253,0.7268,0.7274,0.7283,0.7286,0.7279,0.728,0.7281,0.7281,0.7282,0.7283,0.7288,0.7288,0.7288,0,0.7126,0.713,0.7147,0.7153,0.716,0.7168,0.7175,0.7188,0.7195,0.721,0.7213,0.7225,0.7235,0.7252,0.7265,0.7277,0.728,0.728,0.7282,0.7279,0.7281,0.728,0.7281,0.7279,0.7279,0.7279,0.7279,0,0.7117,0.7123,0.7132,0.7144,0.7152,0.7162,0.7172,0.7177,0.7192,0.7199,0.7211,0.7219,0.7235,0.7247,0.7261,0.7269,0.7277,0.7278,0.7279,0.7276,0.7271,0.7274,0.7277,0.7278,0.7278,0.7278,0.7278,0.7278,0.7109,0.7113,0.7127,0.7137,0.7147,0.7157,0.7163,0.7174,0.7184,0.7198,0.7205,0.7217,0.7231,0.725,0.7259,0.7269,0.7271,0.7273,0.7273,0.7273,0.7273,0.727,0.7272,0.7272,0.7272,0.7272,0.7272,0,0.71,0.711,0.712,0.7135,0.7143,0.7151,0.7163,0.717,0.718,0.7193,0.7203,0.7217,0.723,0.7244,0.7257,0.7263,0.7267,0.7266,0.7266,0.7268,0.7269,0.7267,0.7263,0.7263,0.7263,0.7263,0.7263,0.7263,0.7097,0.7106,0.7114,0.7129,0.7139,0.715,0.7157,0.7167,0.7177,0.7193,0.7203,0.7213,0.7226,0.7241,0.7254,0.7258,0.7262,0.726,0.7265,0.7267,0.7267,0.7268,0.7266,0.7261,0.7261,0.7263,0.7263,0.7263]}]]